﻿測定場所 (Monitoring sites),日付 (Measurement date),時間 (Measurement time),線量率 最大値 (max) μGy/h,線量率 最小値 (min) μGy/h,線量率 平均値 (average) μGy/h,
江戸川 (Edogawa),2020-03-01,23:01～24:00,0.0474,0.0422,0.0447,
江戸川 (Edogawa),2020-03-01,22:01～23:00,0.0475,0.0416,0.0445,
江戸川 (Edogawa),2020-03-01,21:01～22:00,0.0478,0.0414,0.0442,
江戸川 (Edogawa),2020-03-01,20:01～21:00,0.0470,0.0417,0.0444,
江戸川 (Edogawa),2020-03-01,19:01～20:00,0.0483,0.0406,0.0440,
江戸川 (Edogawa),2020-03-01,18:01～19:00,0.0476,0.0421,0.0445,
江戸川 (Edogawa),2020-03-01,17:01～18:00,0.0488,0.0420,0.0445,
江戸川 (Edogawa),2020-03-01,16:01～17:00,0.0473,0.0418,0.0446,
江戸川 (Edogawa),2020-03-01,15:01～16:00,0.0477,0.0408,0.0441,
江戸川 (Edogawa),2020-03-01,14:01～15:00,0.0471,0.0413,0.0447,
江戸川 (Edogawa),2020-03-01,13:01～14:00,0.0478,0.0409,0.0444,
江戸川 (Edogawa),2020-03-01,12:01～13:00,0.0461,0.0395,0.0438,
江戸川 (Edogawa),2020-03-01,11:01～12:00,0.0465,0.0406,0.0438,
江戸川 (Edogawa),2020-03-01,10:01～11:00,0.0477,0.0400,0.0439,
江戸川 (Edogawa),2020-03-01,09:01～10:00,0.0475,0.0400,0.0443,
江戸川 (Edogawa),2020-03-01,08:01～09:00,0.0480,0.0408,0.0441,
江戸川 (Edogawa),2020-03-01,07:01～08:00,0.0476,0.0419,0.0441,
江戸川 (Edogawa),2020-03-01,06:01～07:00,0.0468,0.0412,0.0440,
江戸川 (Edogawa),2020-03-01,05:01～06:00,0.0472,0.0409,0.0438,
江戸川 (Edogawa),2020-03-01,04:01～05:00,0.0475,0.0411,0.0439,
江戸川 (Edogawa),2020-03-01,03:01～04:00,0.0470,0.0419,0.0446,
江戸川 (Edogawa),2020-03-01,02:01～03:00,0.0479,0.0418,0.0452,
江戸川 (Edogawa),2020-03-01,01:01～02:00,0.0508,0.0440,0.0472,
江戸川 (Edogawa),2020-03-01,00:01～01:00,0.0520,0.0455,0.0490,
江戸川 (Edogawa),2020-02-29,23:01～24:00,0.0519,0.0456,0.0489,
江戸川 (Edogawa),2020-02-29,22:01～23:00,0.0545,0.0445,0.0489,
江戸川 (Edogawa),2020-02-29,21:01～22:00,0.0494,0.0416,0.0447,
江戸川 (Edogawa),2020-02-29,20:01～21:00,0.0465,0.0410,0.0441,
江戸川 (Edogawa),2020-02-29,19:01～20:00,0.0478,0.0404,0.0440,
江戸川 (Edogawa),2020-02-29,18:01～19:00,0.0492,0.0412,0.0441,
江戸川 (Edogawa),2020-02-29,17:01～18:00,0.0467,0.0409,0.0441,
江戸川 (Edogawa),2020-02-29,16:01～17:00,0.0480,0.0417,0.0445,
江戸川 (Edogawa),2020-02-29,15:01～16:00,0.0475,0.0407,0.0444,
江戸川 (Edogawa),2020-02-29,14:01～15:00,0.0469,0.0420,0.0445,
江戸川 (Edogawa),2020-02-29,13:01～14:00,0.0476,0.0414,0.0442,
江戸川 (Edogawa),2020-02-29,12:01～13:00,0.0480,0.0414,0.0445,
江戸川 (Edogawa),2020-02-29,11:01～12:00,0.0473,0.0410,0.0448,
江戸川 (Edogawa),2020-02-29,10:01～11:00,0.0475,0.0405,0.0446,
江戸川 (Edogawa),2020-02-29,09:01～10:00,0.0480,0.0402,0.0444,
江戸川 (Edogawa),2020-02-29,08:01～09:00,0.0483,0.0422,0.0448,
江戸川 (Edogawa),2020-02-29,07:01～08:00,0.0476,0.0404,0.0443,
江戸川 (Edogawa),2020-02-29,06:01～07:00,0.0483,0.0415,0.0448,
江戸川 (Edogawa),2020-02-29,05:01～06:00,0.0473,0.0406,0.0444,
江戸川 (Edogawa),2020-02-29,04:01～05:00,0.0470,0.0413,0.0441,
江戸川 (Edogawa),2020-02-29,03:01～04:00,0.0474,0.0415,0.0441,
江戸川 (Edogawa),2020-02-29,02:01～03:00,0.0491,0.0399,0.0446,
江戸川 (Edogawa),2020-02-29,01:01～02:00,0.0472,0.0404,0.0439,
江戸川 (Edogawa),2020-02-29,00:01～01:00,0.0466,0.0413,0.0439,
江戸川 (Edogawa),2020-02-28,23:01～24:00,0.0477,0.0411,0.0441,
江戸川 (Edogawa),2020-02-28,22:01～23:00,0.0468,0.0403,0.0439,
江戸川 (Edogawa),2020-02-28,21:01～22:00,0.0470,0.0410,0.0437,
江戸川 (Edogawa),2020-02-28,20:01～21:00,0.0471,0.0412,0.0438,
江戸川 (Edogawa),2020-02-28,19:01～20:00,0.0479,0.0410,0.0440,
江戸川 (Edogawa),2020-02-28,18:01～19:00,0.0471,0.0411,0.0439,
江戸川 (Edogawa),2020-02-28,17:01～18:00,0.0473,0.0408,0.0436,
江戸川 (Edogawa),2020-02-28,16:01～17:00,0.0470,0.0405,0.0441,
江戸川 (Edogawa),2020-02-28,15:01～16:00,0.0482,0.0407,0.0441,
江戸川 (Edogawa),2020-02-28,14:01～15:00,0.0473,0.0400,0.0439,
江戸川 (Edogawa),2020-02-28,13:01～14:00,0.0471,0.0416,0.0440,
江戸川 (Edogawa),2020-02-28,12:01～13:00,0.0479,0.0416,0.0444,
江戸川 (Edogawa),2020-02-28,11:01～12:00,0.0478,0.0415,0.0447,
江戸川 (Edogawa),2020-02-28,10:01～11:00,0.0469,0.0421,0.0443,
江戸川 (Edogawa),2020-02-28,09:01～10:00,0.0475,0.0402,0.0439,
江戸川 (Edogawa),2020-02-28,08:01～09:00,0.0471,0.0412,0.0439,
江戸川 (Edogawa),2020-02-28,07:01～08:00,0.0472,0.0397,0.0437,
江戸川 (Edogawa),2020-02-28,06:01～07:00,0.0468,0.0411,0.0435,
江戸川 (Edogawa),2020-02-28,05:01～06:00,0.0475,0.0408,0.0432,
江戸川 (Edogawa),2020-02-28,04:01～05:00,0.0464,0.0402,0.0433,
江戸川 (Edogawa),2020-02-28,03:01～04:00,0.0467,0.0394,0.0435,
江戸川 (Edogawa),2020-02-28,02:01～03:00,0.0468,0.0415,0.0438,
江戸川 (Edogawa),2020-02-28,01:01～02:00,0.0472,0.0408,0.0436,
江戸川 (Edogawa),2020-02-28,00:01～01:00,0.0462,0.0409,0.0436,
江戸川 (Edogawa),2020-02-27,23:01～24:00,0.0463,0.0407,0.0434,
江戸川 (Edogawa),2020-02-27,22:01～23:00,0.0471,0.0412,0.0436,
江戸川 (Edogawa),2020-02-27,21:01～22:00,0.0481,0.0408,0.0436,
江戸川 (Edogawa),2020-02-27,20:01～21:00,0.0488,0.0413,0.0439,
江戸川 (Edogawa),2020-02-27,19:01～20:00,0.0466,0.0401,0.0434,
江戸川 (Edogawa),2020-02-27,18:01～19:00,0.0474,0.0409,0.0437,
江戸川 (Edogawa),2020-02-27,17:01～18:00,0.0465,0.0405,0.0436,
江戸川 (Edogawa),2020-02-27,16:01～17:00,0.0479,0.0392,0.0439,
江戸川 (Edogawa),2020-02-27,15:01～16:00,0.0471,0.0402,0.0437,
江戸川 (Edogawa),2020-02-27,14:01～15:00,0.0481,0.0413,0.0439,
江戸川 (Edogawa),2020-02-27,13:01～14:00,0.0476,0.0406,0.0440,
江戸川 (Edogawa),2020-02-27,12:01～13:00,0.0476,0.0414,0.0446,
江戸川 (Edogawa),2020-02-27,11:01～12:00,0.0478,0.0416,0.0447,
江戸川 (Edogawa),2020-02-27,10:01～11:00,0.0472,0.0413,0.0437,
江戸川 (Edogawa),2020-02-27,09:01～10:00,0.0483,0.0406,0.0438,
江戸川 (Edogawa),2020-02-27,08:01～09:00,0.0463,0.0406,0.0435,
江戸川 (Edogawa),2020-02-27,07:01～08:00,0.0474,0.0394,0.0439,
江戸川 (Edogawa),2020-02-27,06:01～07:00,0.0473,0.0414,0.0441,
江戸川 (Edogawa),2020-02-27,05:01～06:00,0.0468,0.0414,0.0437,
江戸川 (Edogawa),2020-02-27,04:01～05:00,0.0479,0.0401,0.0437,
江戸川 (Edogawa),2020-02-27,03:01～04:00,0.0470,0.0395,0.0439,
江戸川 (Edogawa),2020-02-27,02:01～03:00,0.0470,0.0402,0.0439,
江戸川 (Edogawa),2020-02-27,01:01～02:00,0.0465,0.0419,0.0441,
江戸川 (Edogawa),2020-02-27,00:01～01:00,0.0472,0.0411,0.0439,
江戸川 (Edogawa),2020-02-26,23:01～24:00,0.0480,0.0401,0.0441,
江戸川 (Edogawa),2020-02-26,22:01～23:00,0.0470,0.0414,0.0440,
江戸川 (Edogawa),2020-02-26,21:01～22:00,0.0472,0.0410,0.0442,
江戸川 (Edogawa),2020-02-26,20:01～21:00,0.0471,0.0399,0.0436,
江戸川 (Edogawa),2020-02-26,19:01～20:00,0.0466,0.0406,0.0438,
江戸川 (Edogawa),2020-02-26,18:01～19:00,0.0467,0.0413,0.0439,
江戸川 (Edogawa),2020-02-26,17:01～18:00,0.0475,0.0410,0.0440,
江戸川 (Edogawa),2020-02-26,16:01～17:00,0.0487,0.0410,0.0447,
江戸川 (Edogawa),2020-02-26,15:01～16:00,0.0510,0.0431,0.0467,
江戸川 (Edogawa),2020-02-26,14:01～15:00,0.0524,0.0432,0.0477,
江戸川 (Edogawa),2020-02-26,13:01～14:00,0.0474,0.0412,0.0439,
江戸川 (Edogawa),2020-02-26,12:01～13:00,0.0463,0.0413,0.0436,
江戸川 (Edogawa),2020-02-26,11:01～12:00,0.0485,0.0407,0.0436,
江戸川 (Edogawa),2020-02-26,10:01～11:00,0.0465,0.0402,0.0437,
江戸川 (Edogawa),2020-02-26,09:01～10:00,0.0477,0.0408,0.0438,
江戸川 (Edogawa),2020-02-26,08:01～09:00,0.0460,0.0402,0.0433,
江戸川 (Edogawa),2020-02-26,07:01～08:00,0.0466,0.0398,0.0439,
江戸川 (Edogawa),2020-02-26,06:01～07:00,0.0463,0.0409,0.0438,
江戸川 (Edogawa),2020-02-26,05:01～06:00,0.0488,0.0415,0.0451,
江戸川 (Edogawa),2020-02-26,04:01～05:00,0.0520,0.0433,0.0475,
江戸川 (Edogawa),2020-02-26,03:01～04:00,0.0674,0.0495,0.0570,
江戸川 (Edogawa),2020-02-26,02:01～03:00,0.0682,0.0552,0.0631,
江戸川 (Edogawa),2020-02-26,01:01～02:00,0.0630,0.0527,0.0567,
江戸川 (Edogawa),2020-02-26,00:01～01:00,0.0566,0.0467,0.0504,
江戸川 (Edogawa),2020-02-25,23:01～24:00,0.0519,0.0417,0.0472,
江戸川 (Edogawa),2020-02-25,22:01～23:00,0.0486,0.0431,0.0451,
江戸川 (Edogawa),2020-02-25,21:01～22:00,0.0481,0.0420,0.0447,
江戸川 (Edogawa),2020-02-25,20:01～21:00,0.0487,0.0418,0.0447,
江戸川 (Edogawa),2020-02-25,19:01～20:00,0.0492,0.0417,0.0443,
江戸川 (Edogawa),2020-02-25,18:01～19:00,0.0474,0.0412,0.0441,
江戸川 (Edogawa),2020-02-25,17:01～18:00,0.0473,0.0412,0.0445,
江戸川 (Edogawa),2020-02-25,16:01～17:00,0.0471,0.0409,0.0444,
江戸川 (Edogawa),2020-02-25,15:01～16:00,0.0485,0.0421,0.0449,
江戸川 (Edogawa),2020-02-25,14:01～15:00,0.0483,0.0417,0.0452,
江戸川 (Edogawa),2020-02-25,13:01～14:00,0.0483,0.0421,0.0450,
江戸川 (Edogawa),2020-02-25,12:01～13:00,0.0483,0.0422,0.0450,
江戸川 (Edogawa),2020-02-25,11:01～12:00,0.0493,0.0427,0.0455,
江戸川 (Edogawa),2020-02-25,10:01～11:00,0.0492,0.0427,0.0456,
江戸川 (Edogawa),2020-02-25,09:01～10:00,0.0478,0.0416,0.0452,
江戸川 (Edogawa),2020-02-25,08:01～09:00,0.0473,0.0416,0.0449,
江戸川 (Edogawa),2020-02-25,07:01～08:00,0.0479,0.0419,0.0454,
江戸川 (Edogawa),2020-02-25,06:01～07:00,0.0476,0.0422,0.0446,
江戸川 (Edogawa),2020-02-25,05:01～06:00,0.0473,0.0411,0.0444,
江戸川 (Edogawa),2020-02-25,04:01～05:00,0.0475,0.0418,0.0447,
江戸川 (Edogawa),2020-02-25,03:01～04:00,0.0480,0.0420,0.0448,
江戸川 (Edogawa),2020-02-25,02:01～03:00,0.0478,0.0416,0.0446,
江戸川 (Edogawa),2020-02-25,01:01～02:00,0.0477,0.0411,0.0445,
江戸川 (Edogawa),2020-02-25,00:01～01:00,0.0478,0.0420,0.0449,
江戸川 (Edogawa),2020-02-24,23:01～24:00,0.0471,0.0423,0.0446,
江戸川 (Edogawa),2020-02-24,22:01～23:00,0.0484,0.0412,0.0448,
江戸川 (Edogawa),2020-02-24,21:01～22:00,0.0475,0.0427,0.0450,
江戸川 (Edogawa),2020-02-24,20:01～21:00,0.0479,0.0415,0.0447,
江戸川 (Edogawa),2020-02-24,19:01～20:00,0.0479,0.0420,0.0446,
江戸川 (Edogawa),2020-02-24,18:01～19:00,0.0476,0.0414,0.0445,
江戸川 (Edogawa),2020-02-24,17:01～18:00,0.0480,0.0405,0.0448,
江戸川 (Edogawa),2020-02-24,16:01～17:00,0.0486,0.0422,0.0453,
江戸川 (Edogawa),2020-02-24,15:01～16:00,0.0479,0.0420,0.0452,
江戸川 (Edogawa),2020-02-24,14:01～15:00,0.0474,0.0428,0.0452,
江戸川 (Edogawa),2020-02-24,13:01～14:00,0.0485,0.0413,0.0455,
江戸川 (Edogawa),2020-02-24,12:01～13:00,0.0493,0.0409,0.0454,
江戸川 (Edogawa),2020-02-24,11:01～12:00,0.0480,0.0429,0.0453,
江戸川 (Edogawa),2020-02-24,10:01～11:00,0.0486,0.0418,0.0445,
江戸川 (Edogawa),2020-02-24,09:01～10:00,0.0487,0.0415,0.0449,
江戸川 (Edogawa),2020-02-24,08:01～09:00,0.0474,0.0412,0.0445,
江戸川 (Edogawa),2020-02-24,07:01～08:00,0.0490,0.0412,0.0450,
江戸川 (Edogawa),2020-02-24,06:01～07:00,0.0478,0.0424,0.0449,
江戸川 (Edogawa),2020-02-24,05:01～06:00,0.0470,0.0417,0.0448,
江戸川 (Edogawa),2020-02-24,04:01～05:00,0.0490,0.0417,0.0448,
江戸川 (Edogawa),2020-02-24,03:01～04:00,0.0475,0.0409,0.0447,
江戸川 (Edogawa),2020-02-24,02:01～03:00,0.0483,0.0406,0.0445,
江戸川 (Edogawa),2020-02-24,01:01～02:00,0.0467,0.0413,0.0447,
江戸川 (Edogawa),2020-02-24,00:01～01:00,0.0476,0.0419,0.0449,
